DLH1242 EDDS-EDDF

Flight info

Callsign DLH1242
Flight time N/A
Altitude 20000
Route ETASA4B/25 ETASA T163 SPESA SPESA4B
Aircraft A321/M-SDE3FGHIRWY/LB1

Departure

Time 2026-05-05 15:04
Airport Stuttgart Airport (EDDS)

Arrival

Time N/A
Airport Frankfurt Main Airport (EDDF)
Time Latitude Longitude Altitude Speed Heading
2026-05-05 14:34 48.68893 9.19431 1296 ft 0 kts 343°
2026-05-05 14:51 48.68890 9.19432 1295 ft 3 kts 343°
2026-05-05 14:51 48.68874 9.19440 1295 ft 3 kts 343°
2026-05-05 14:51 48.68858 9.19448 1295 ft 3 kts 352°
2026-05-05 14:51 48.68842 9.19447 1295 ft 3 kts 33°
2026-05-05 14:52 48.68828 9.19432 1295 ft 3 kts 33°
2026-05-05 14:52 48.68818 9.19422 1295 ft 0 kts 66°
2026-05-05 14:55 48.68820 9.19429 1295 ft 2 kts 66°
2026-05-05 14:55 48.68824 9.19453 1295 ft 3 kts 75°
2026-05-05 14:55 48.68832 9.19493 1295 ft 5 kts 75°
2026-05-05 14:55 48.68844 9.19561 1295 ft 8 kts 74°
2026-05-05 14:56 48.68859 9.19643 1295 ft 10 kts 75°
2026-05-05 14:56 48.68876 9.19742 1295 ft 11 kts 76°
2026-05-05 14:56 48.68888 9.19833 1293 ft 8 kts 88°
2026-05-05 14:56 48.68850 9.19893 1292 ft 5 kts 146°
2026-05-05 14:57 48.68836 9.19908 1292 ft 6 kts 144°
2026-05-05 14:57 48.68795 9.19956 1291 ft 9 kts 139°
2026-05-05 14:57 48.68787 9.19967 1291 ft 5 kts 137°
2026-05-05 14:57 48.68761 9.20047 1289 ft 11 kts 97°
2026-05-05 14:58 48.68782 9.20167 1287 ft 15 kts 73°
2026-05-05 14:58 48.68816 9.20336 1283 ft 19 kts 73°
2026-05-05 14:58 48.68853 9.20540 1279 ft 23 kts 74°
2026-05-05 14:58 48.68894 9.20761 1274 ft 16 kts 76°
2026-05-05 14:59 48.68926 9.20941 1271 ft 20 kts 75°
2026-05-05 14:59 48.68967 9.21152 1266 ft 23 kts 71°
2026-05-05 14:59 48.69014 9.21391 1261 ft 27 kts 73°
2026-05-05 14:59 48.69065 9.21649 1262 ft 30 kts 73°
2026-05-05 15:00 48.69118 9.21930 1246 ft 32 kts 75°
2026-05-05 15:00 48.69158 9.22151 1241 ft 34 kts 74°
2026-05-05 15:00 48.69243 9.22613 1230 ft 37 kts 74°
2026-05-05 15:00 48.69300 9.22912 1224 ft 38 kts 73°
2026-05-05 15:01 48.69364 9.23236 1216 ft 33 kts 73°
2026-05-05 15:01 48.69418 9.23531 1209 ft 30 kts 74°
2026-05-05 15:01 48.69473 9.23822 1202 ft 33 kts 73°
2026-05-05 15:01 48.69533 9.24132 1195 ft 30 kts 73°
2026-05-05 15:02 48.69515 9.24308 1192 ft 15 kts 155°
2026-05-05 15:02 48.69497 9.24317 1191 ft 0 kts 163°
2026-05-05 15:02 48.69480 9.24325 1191 ft 5 kts 163°
2026-05-05 15:02 48.69419 9.24327 1190 ft 13 kts 201°
2026-05-05 15:03 48.69375 9.24234 1192 ft 0 kts 253°
2026-05-05 15:03 48.69375 9.24233 1192 ft 0 kts 253°
2026-05-05 15:03 48.69374 9.24229 1192 ft 1 kts 253°
2026-05-05 15:03 48.69340 9.24052 1195 ft 51 kts 253°
2026-05-05 15:04 48.69200 9.23336 1214 ft 115 kts 254°
2026-05-05 15:04 48.68953 9.22116 1262 ft 168 kts 251°
2026-05-05 15:04 48.68665 9.20611 1720 ft 177 kts 257°
2026-05-05 15:04 48.68417 9.18935 2522 ft 176 kts 257°
2026-05-05 15:05 48.67737 9.15337 3655 ft 197 kts 253°
2026-05-05 15:05 48.67376 9.13590 3894 ft 217 kts 253°
2026-05-05 15:05 48.67024 9.11600 4224 ft 235 kts 265°
2026-05-05 15:06 48.67228 9.09704 4650 ft 243 kts 291°
2026-05-05 15:06 48.67839 9.07910 4510 ft 271 kts 307°
2026-05-05 15:06 48.69205 9.06178 4989 ft 281 kts 338°
2026-05-05 15:06 48.70713 9.05603 5724 ft 278 kts 354°
2026-05-05 15:07 48.72219 9.05434 6401 ft 276 kts 351°
2026-05-05 15:07 48.73969 9.04825 7125 ft 277 kts 341°
2026-05-05 15:07 48.75605 9.04040 7785 ft 280 kts 347°
2026-05-05 15:07 48.77469 9.04020 8454 ft 285 kts
2026-05-05 15:08 48.79190 9.04426 9095 ft 287 kts
2026-05-05 15:08 48.81106 9.04861 9806 ft 289 kts
2026-05-05 15:08 48.83010 9.05277 10433 ft 295 kts
2026-05-05 15:08 48.85005 9.05700 10601 ft 317 kts
2026-05-05 15:09 48.87158 9.06149 10735 ft 338 kts
2026-05-05 15:09 48.89524 9.06638 10889 ft 357 kts
2026-05-05 15:09 48.91885 9.07126 11338 ft 363 kts
2026-05-05 15:09 48.94257 9.07620 11928 ft 367 kts
2026-05-05 15:10 48.96722 9.08135 12518 ft 370 kts
2026-05-05 15:10 48.99211 9.08657 13097 ft 373 kts
2026-05-05 15:10 49.01783 9.09197 13673 ft 376 kts
2026-05-05 15:10 49.04302 9.09730 14224 ft 379 kts
2026-05-05 15:11 49.06799 9.10259 14752 ft 382 kts
2026-05-05 15:11 49.09374 9.10642 15278 ft 385 kts 359°
2026-05-05 15:11 49.11827 9.10504 15781 ft 387 kts 358°
2026-05-05 15:11 49.14557 9.10408 16305 ft 390 kts 358°
2026-05-05 15:12 49.17168 9.10311 16794 ft 393 kts 358°
2026-05-05 15:12 49.19879 9.10216 17286 ft 396 kts 358°
2026-05-05 15:12 49.22351 9.10130 17728 ft 398 kts 358°
2026-05-05 15:12 49.24936 9.10041 18160 ft 401 kts 358°
2026-05-05 15:13 49.27705 9.09944 18610 ft 404 kts 358°
2026-05-05 15:13 49.30451 9.09844 19046 ft 406 kts 358°
2026-05-05 15:13 49.33217 9.09741 19479 ft 408 kts 358°
2026-05-05 15:13 49.35933 9.09643 19913 ft 410 kts 358°
2026-05-05 15:14 49.38599 9.09545 20336 ft 412 kts 358°
2026-05-05 15:14 49.40337 9.09479 20612 ft 413 kts 358°
2026-05-05 15:14 49.42980 9.09384 21027 ft 415 kts 358°
2026-05-05 15:14 49.45886 9.09280 21472 ft 416 kts 358°
2026-05-05 15:15 49.48345 9.09193 21849 ft 418 kts 358°
2026-05-05 15:15 49.51219 9.09090 21516 ft 424 kts 358°
2026-05-05 15:15 49.54232 9.08980 20588 ft 425 kts 358°
2026-05-05 15:15 49.57035 9.08880 19861 ft 422 kts 358°
2026-05-05 15:16 49.59817 9.08783 19159 ft 419 kts 358°
2026-05-05 15:16 49.62474 9.08690 18509 ft 415 kts 358°
2026-05-05 15:16 49.65411 9.08587 17782 ft 411 kts 358°
2026-05-05 15:16 49.68245 9.08487 17097 ft 407 kts 358°
2026-05-05 15:17 49.70981 9.08387 16445 ft 403 kts 358°
2026-05-05 15:17 49.73769 9.08281 15773 ft 399 kts 358°
2026-05-05 15:17 49.76527 9.08177 15096 ft 394 kts 358°
2026-05-05 15:17 49.79171 9.08079 14460 ft 390 kts 358°
2026-05-05 15:18 49.81857 9.07983 14194 ft 375 kts 358°
2026-05-05 15:18 49.84288 9.07896 14072 ft 358 kts 358°
2026-05-05 15:18 49.86728 9.07806 13899 ft 343 kts 357°
2026-05-05 15:18 49.89094 9.07234 12896 ft 352 kts 345°
2026-05-05 15:19 49.91399 9.06283 11807 ft 364 kts 344°
2026-05-05 15:19 49.93828 9.05249 10953 ft 368 kts 344°
2026-05-05 15:19 49.96267 9.04207 10447 ft 360 kts 344°
2026-05-05 15:19 49.98596 9.03213 10317 ft 341 kts 344°
2026-05-05 15:20 50.00811 9.02298 10190 ft 324 kts 344°
2026-05-05 15:20 50.02938 9.01397 10075 ft 309 kts 344°
2026-05-05 15:20 50.04938 9.00548 9933 ft 296 kts 344°
2026-05-05 15:20 50.06758 8.99777 9719 ft 288 kts 344°
2026-05-05 15:21 50.08655 8.98973 9360 ft 285 kts 344°
2026-05-05 15:21 50.10518 8.98183 8993 ft 283 kts 344°
2026-05-05 15:21 50.12157 8.97489 8928 ft 274 kts 344°
2026-05-05 15:21 50.13970 8.96714 8794 ft 264 kts 343°
2026-05-05 15:22 50.15486 8.95552 8586 ft 255 kts 317°
2026-05-05 15:22 50.16499 8.93359 8231 ft 246 kts 285°
2026-05-05 15:22 50.16650 8.90876 7906 ft 239 kts 256°
2026-05-05 15:22 50.15950 8.88580 7565 ft 233 kts 229°
2026-05-05 15:23 50.14850 8.86779 7194 ft 232 kts 213°
2026-05-05 15:23 50.13414 8.85669 6843 ft 231 kts 206°
2026-05-05 15:23 50.12172 8.84199 6510 ft 230 kts 232°
2026-05-05 15:23 50.11430 8.82043 6175 ft 231 kts 245°
2026-05-05 15:24 50.10856 8.79845 5941 ft 225 kts 247°
2026-05-05 15:24 50.10315 8.77593 5778 ft 213 kts 248°
2026-05-05 15:24 50.09824 8.75488 5643 ft 200 kts 248°
2026-05-05 15:24 50.09364 8.73513 5452 ft 189 kts 248°
2026-05-05 15:25 50.08926 8.71644 5045 ft 186 kts 248°
2026-05-05 15:25 50.08533 8.69949 4650 ft 184 kts 248°